User: anonymous   Login
Location: Stonelick Lake State Park
(39.2170°N, 84.0850°W)
Time: 06:48:05
(UTC-05:00)
Language:

Lacrosse 5 - Orbit

View from above orbital plane
View from above orbital plane
View from above satellite
View from above satellite

Ground track
Ground track

The orbit data is extracted from the following two-line orbital elements,

1 28646U 05016A   16345.25581821 0.00000000  00000-0  00000-0 0    02
2 28646  57.0130 111.1972 0009000 203.7731 156.2269 14.51928232    06
Epoch (UTC): 10 December 2016 06:08:22
Eccentricity: 0.0009000
inclination: 57.0130°
perigee height: 713 km
apogee height: 726 km
right ascension of ascending node: 111.1972°
argument of perigee: 203.7731°
revolutions per day: 14.51928232
mean anomaly at epoch: 156.2269°
orbit number at epoch: 0

The dashed part of the orbit path shows where the satellite is in the earth's shadow,  

DLR